Location: *
(50.5492°N, 7.7469°E)
Time: 00:45:02
(UTC+00:00)

Cosmos 1934 Rocket - Pass Details

Date: 21 October 2019
Orbit: 939 x 998 km, 83.0° (Epoch: 12 November)

Event Time Altitude Azimuth Distance (km) Brightness Sun altitude
Rises 17:02:56 0° 350° (N) 3,708 7.1 -6.6°
Reaches altitude 10° 17:05:28 10° 352° (N) 2,762 6.4 -7.0°
Maximum altitude 17:11:50 79° 80° (E) 1,019 4.0 -8.0°
Drops below altitude 10° 17:18:12 10° 167° (SSE) 2,762 6.3 -9.0°
Sets 17:20:44 0° 169° (SSE) 3,707 7.0 -9.4°
